DateTimeUTC,F1_A11,F1_S11,BsB_S11,BsG_S11,BsR_S11,BbsB_S11,BbsG_S11,BbsR_S11,BaB_A11,BaG_A11,BaR_A11,Tu_S11,T_S11,Uu_S11,U_S11,P_S11,T1_A11
2021-09-08T22:00:00Z,00000200,21000000,,,,,,,-000.25,-000.45,-000.13,17.7,25.0,,00.0,0662.1,31.0
2021-09-08T22:01:00Z,00000200,21000000,,,,,,,-000.28,-000.14,-000.01,17.8,25.1,,00.0,0662.1,31.0
2021-09-08T22:02:00Z,00000200,21000000,,,,,,,0000.34,0000.22,-000.03,17.8,25.1,,00.0,0662.1,31.0
2021-09-08T22:03:00Z,00000200,61000000,,,,,,,-000.40,0000.00,-000.54,17.8,25.1,,00.0,0662.1,31.0
2021-09-08T22:04:00Z,00000200,41000000,0000.97,0000.59,0000.42,0000.64,-000.10,0000.32,0000.08,-000.23,0000.42,18.3,25.0,,00.0,0663.0,31.0
2021-09-08T22:05:00Z,00000200,01000000,0001.24,0000.74,0000.49,0000.17,-000.04,0000.09,0000.09,0000.35,0000.15,18.4,25.0,,00.0,0663.1,31.0
2021-09-08T22:06:00Z,00000200,01000000,0001.29,0000.92,0000.75,-000.34,0000.27,-000.28,-000.14,-000.50,-000.19,18.3,25.0,,00.0,0663.1,31.0
2021-09-08T22:07:00Z,00000200,01000000,0000.56,0000.66,0000.67,-000.34,0000.15,0000.06,0000.19,0000.18,0000.36,18.2,24.9,,00.0,0663.1,31.0
2021-09-08T22:08:00Z,00000200,01000000,0000.84,0000.77,0000.77,-000.24,0000.52,-000.36,-000.28,0000.17,-000.45,18.1,24.9,,00.0,0663.0,30.9
2021-09-08T22:09:00Z,00000200,01000000,0001.62,0000.94,0000.89,-000.51,0000.22,0000.00,0000.55,0000.45,0000.20,18.0,24.8,,00.0,0663.0,30.9
2021-09-08T22:10:00Z,00000200,01000000,0001.51,0000.79,0000.94,0000.03,0000.12,0000.48,0000.15,-000.17,0000.40,17.9,24.7,,00.0,0663.0,30.9
2021-09-08T22:11:00Z,00000200,01000000,0001.29,0001.05,0000.66,0000.16,0000.08,0000.26,0000.42,0000.45,0000.20,17.9,24.7,,00.0,0663.0,30.9
2021-09-08T22:12:00Z,00000200,01000000,-000.04,0001.28,0000.42,0000.01,0000.28,0000.04,0000.04,-000.04,0000.12,17.9,24.7,,00.0,0663.1,30.9
2021-09-08T22:13:00Z,00000200,01000000,0001.19,0000.92,0000.84,0000.35,0000.54,0000.34,0000.47,0000.44,0000.40,18.0,24.7,,00.0,0663.1,30.9
2021-09-08T22:14:00Z,00000200,01000000,0000.75,0000.62,0000.78,0000.12,0000.18,0000.28,0000.14,0000.00,0000.00,18.1,24.7,,00.0,0663.1,30.9
2021-09-08T22:15:00Z,00000200,01000000,0000.62,0000.75,0000.84,-000.54,-000.16,0000.07,-000.09,0000.26,0000.16,18.1,24.8,,00.0,0663.1,31.0
2021-09-08T22:16:00Z,00000200,01000000,0001.47,0000.53,0000.41,-000.11,0000.25,0000.26,0000.43,0000.16,-000.15,18.2,24.8,,00.0,0663.1,31.0
2021-09-08T22:17:00Z,00000200,01000000,0000.58,0000.92,0000.57,-000.96,-000.01,0000.24,0000.17,0000.06,0000.34,18.3,24.8,,00.0,0663.1,31.0
2021-09-08T22:18:00Z,00000200,01000000,0001.90,0001.01,0000.49,0000.45,0000.19,0000.02,-000.08,-000.08,-000.03,18.3,24.9,,00.0,0663.1,31.0
2021-09-08T22:19:00Z,00000200,01000000,0001.10,0000.91,0000.42,0000.49,0000.18,0000.21,-000.12,0000.14,0000.07,18.2,24.8,,00.0,0663.1,31.0
2021-09-08T22:20:00Z,00000200,01000000,0001.35,0000.88,0000.66,0000.10,0000.20,0000.46,-000.32,-000.25,-000.50,18.2,24.8,,00.0,0663.1,31.0
2021-09-08T22:21:00Z,00000200,01000000,0000.06,0000.81,0000.56,-000.66,0000.23,-000.37,0000.32,0000.04,0000.41,18.1,24.7,,00.0,0663.1,30.9
2021-09-08T22:22:00Z,00000200,01000000,0001.10,0000.81,0000.58,-000.17,0000.30,0000.47,-000.34,0000.07,-000.05,18.0,24.7,,00.0,0663.0,30.9
2021-09-08T22:23:00Z,00000200,01000000,-000.12,0000.87,0000.53,-000.12,0000.49,0000.15,0000.23,0000.05,-000.16,17.9,24.7,,00.0,0663.0,30.9
2021-09-08T22:24:00Z,00000200,01000000,0001.44,0001.25,0000.39,-000.25,-000.05,0000.08,0000.14,-000.18,-000.10,17.8,24.6,,00.0,0663.0,30.9
2021-09-08T22:25:00Z,00000200,01000000,0000.83,0000.75,0000.42,-000.23,0000.49,-000.17,0000.08,0000.57,0000.35,17.7,24.5,,00.0,0663.0,30.9
2021-09-08T22:26:00Z,00000200,01000000,0000.18,0000.47,0000.40,-000.69,0000.53,0000.19,0000.42,0000.23,0000.25,17.7,24.5,,00.0,0663.0,30.9
2021-09-08T22:27:00Z,00000200,01000000,0000.26,0000.47,0000.55,-000.28,0000.17,0000.06,-000.17,0000.09,-000.12,17.7,24.5,,00.0,0663.0,30.9
2021-09-08T22:28:00Z,00000200,01000000,0001.27,0000.85,0000.50,0000.13,-000.03,0000.05,0000.42,0000.14,0000.83,17.8,24.5,,00.0,0663.0,30.9
2021-09-08T22:29:00Z,00000200,01000000,0000.71,0001.03,0000.93,-000.37,0000.24,0000.23,0000.45,-000.05,0000.08,17.8,24.6,,00.0,0663.0,30.9
2021-09-08T22:30:00Z,00000200,01000000,0001.49,0001.39,0000.70,-000.11,0000.03,-000.16,-000.02,0000.52,-000.04,17.9,24.6,,00.0,0663.0,30.9
2021-09-08T22:31:00Z,00000200,01000000,0002.21,0001.36,0001.15,0000.79,0000.52,0000.31,0000.97,0000.64,0000.51,18.0,24.6,,00.0,0663.0,30.9
2021-09-08T22:32:00Z,00000200,01000000,0002.58,0001.76,0001.39,0000.00,0000.22,0000.27,0000.37,0000.74,0000.81,18.0,24.6,,00.0,0663.0,30.9
2021-09-08T22:33:00Z,00000200,01000000,0002.00,0002.09,0001.32,0000.05,0000.40,0000.35,0000.79,0000.54,0000.35,18.1,24.7,,00.0,0663.0,31.0
2021-09-08T22:34:00Z,00000200,01000000,0001.95,0001.81,0001.53,0000.05,0000.18,0000.15,0000.47,0000.50,0000.31,18.1,24.7,,00.0,0663.0,31.0
2021-09-08T22:35:00Z,00000200,01000000,0001.95,0001.58,0001.04,0000.08,0000.30,0000.13,0000.57,0000.32,0000.41,18.2,24.7,,00.0,0663.0,31.0
2021-09-08T22:36:00Z,00000200,01000000,0002.54,0001.96,0001.35,0000.34,0000.21,0000.22,0000.45,0000.49,0000.29,18.3,24.8,,00.0,0663.0,31.0
2021-09-08T22:37:00Z,00000200,01000000,0002.31,0001.68,0001.86,0000.21,-000.20,0000.17,0000.50,0000.60,0000.45,18.3,24.8,,00.0,0663.0,31.0
2021-09-08T22:38:00Z,00000200,01000000,0002.44,0001.92,0001.47,-000.03,0000.22,0000.21,0000.28,0000.41,-000.14,18.2,24.7,,00.0,0662.9,31.0
2021-09-08T22:39:00Z,00000200,01000000,0001.48,0001.73,0000.73,-000.18,0000.25,0000.14,0000.01,-000.00,0000.42,18.1,24.7,,00.0,0662.9,31.0
2021-09-08T22:40:00Z,00000200,01000000,0002.34,0001.91,0001.26,-000.27,0000.23,0000.18,0000.96,0000.60,0000.22,18.1,24.7,,00.0,0662.9,30.9
2021-09-08T22:41:00Z,00000200,01000000,0001.28,0000.96,0000.99,0000.11,0000.05,0000.28,0000.62,0000.37,0000.56,18.0,24.6,,00.0,0662.9,30.9
2021-09-08T22:42:00Z,00000200,01000000,0001.68,0001.10,0000.88,-000.06,0000.22,-000.05,0000.06,0000.48,0000.34,18.1,24.6,,00.0,0662.9,30.9
2021-09-08T22:43:00Z,00000200,01000000,0001.72,0001.67,0001.04,0000.02,0000.33,0000.19,0000.49,0000.52,-000.01,18.1,24.7,,00.0,0662.9,31.0
2021-09-08T22:44:00Z,00000200,01000000,0000.79,0001.36,0000.96,-000.26,0000.22,0000.14,0000.22,-000.04,0000.74,18.2,24.7,,00.0,0662.9,31.0
2021-09-08T22:45:00Z,00000200,01000000,0001.45,0001.04,0000.80,0000.18,-000.04,-000.07,0000.32,0000.38,0000.11,18.2,24.7,,00.0,0662.9,31.0
2021-09-08T22:46:00Z,00000200,01000000,0001.67,0001.08,0000.56,0000.15,0000.18,-000.34,0000.85,0000.60,0000.13,18.3,24.8,,00.0,0662.9,31.0
2021-09-08T22:47:00Z,00000200,01000000,0001.58,0001.23,0001.01,-000.47,-000.03,-000.03,0000.05,0000.19,0000.57,18.3,24.8,,00.0,0662.9,31.0
2021-09-08T22:48:00Z,00000200,01000000,0001.25,0001.23,0000.72,-000.36,0000.09,0000.05,0000.32,0000.32,0000.10,18.4,24.8,,00.0,0663.0,31.0
2021-09-08T22:49:00Z,00000200,01000000,0001.31,0000.92,0000.73,0000.42,0000.22,0000.11,0000.13,0000.22,0000.07,18.4,24.8,,00.0,0662.9,31.0
2021-09-08T22:50:00Z,00000200,01000000,0002.05,0000.92,0000.90,-000.72,0000.17,0000.18,0000.12,0000.11,-000.25,18.4,24.8,,00.0,0662.9,31.0
2021-09-08T22:51:00Z,00000200,01000000,0001.30,0000.71,0000.72,-000.49,0000.20,0000.11,-000.10,0000.32,0000.37,18.3,24.8,,00.0,0662.9,31.0
2021-09-08T22:52:00Z,00000200,01000000,0001.27,0000.79,0000.47,-000.46,0000.26,0000.23,0000.40,0000.30,0000.04,18.2,24.8,,00.0,0662.9,30.9
2021-09-08T22:53:00Z,00000200,01000000,0001.45,0001.38,0000.95,-000.25,0000.14,0000.27,0000.14,-000.19,0000.51,18.1,24.7,,00.0,0662.9,30.9
2021-09-08T22:54:00Z,00000200,01000000,0000.76,0001.07,0000.63,0000.32,0000.07,0000.08,0000.41,0000.54,0000.18,18.0,24.6,,00.0,0662.9,30.9
2021-09-08T22:55:00Z,00000200,01000000,0000.75,0000.65,0000.65,-001.06,-000.10,0000.06,0000.66,-000.06,0000.12,17.9,24.6,,00.0,0662.9,30.9
2021-09-08T22:56:00Z,00000200,01000000,0000.82,0000.82,0000.80,-000.24,0000.38,-000.17,0000.15,0000.43,0000.44,17.9,24.6,,00.0,0662.9,30.9
2021-09-08T22:57:00Z,00000200,41000000,,,,,,,0000.61,0000.50,0000.50,17.9,24.6,,00.0,0662.9,30.9
2021-09-08T22:58:00Z,00000200,61000000,,,,,,,-000.03,-000.12,-000.31,17.5,24.8,,00.0,0661.9,30.9
2021-09-08T22:59:00Z,00000200,21000000,,,,,,,-000.28,-000.28,-000.20,17.5,24.9,,00.0,0661.9,30.9
